owner,sensor,date,latitude,longitude,air_temperature,qcFlag 
WAVCIS,ioos:station:WAVCIS:CSI03:1,2016-08-01T00:00:00Z,29.4412,-92.0613,30.99,11111222 
WAVCIS,ioos:station:WAVCIS:CSI03:1,2016-08-01T01:00:00Z,29.4412,-92.0613,29.98,11111222 
WAVCIS,ioos:station:WAVCIS:CSI03:1,2016-08-01T02:00:00Z,29.4412,-92.0613,30.07,11111222 
WAVCIS,ioos:station:WAVCIS:CSI03:1,2016-08-01T03:00:00Z,29.4412,-92.0613,30.55,11111222 
WAVCIS,ioos:station:WAVCIS:CSI03:1,2016-08-01T04:00:00Z,29.4412,-92.0613,30.35,11111222 
WAVCIS,ioos:station:WAVCIS:CSI03:1,2016-08-01T05:00:00Z,29.4412,-92.0613,30.4,11111222 
WAVCIS,ioos:station:WAVCIS:CSI03:1,2016-08-01T06:00:00Z,29.4412,-92.0613,30.51,11111222 
WAVCIS,ioos:station:WAVCIS:CSI03:1,2016-08-01T07:00:00Z,29.4412,-92.0613,30.4,11111222 
WAVCIS,ioos:station:WAVCIS:CSI03:1,2016-08-01T08:00:00Z,29.4412,-92.0613,29.92,11111222 
WAVCIS,ioos:station:WAVCIS:CSI03:1,2016-08-01T09:00:00Z,29.4412,-92.0613,29.83,11111222 
WAVCIS,ioos:station:WAVCIS:CSI03:1,2016-08-01T10:00:00Z,29.4412,-92.0613,29.78,11111222 
WAVCIS,ioos:station:WAVCIS:CSI03:1,2016-08-01T11:00:00Z,29.4412,-92.0613,29.67,11111222 
WAVCIS,ioos:station:WAVCIS:CSI03:1,2016-08-01T12:00:00Z,29.4412,-92.0613,29.76,11111222 
WAVCIS,ioos:station:WAVCIS:CSI03:1,2016-08-01T13:00:00Z,29.4412,-92.0613,28.37,11111222 
WAVCIS,ioos:station:WAVCIS:CSI03:1,2016-08-01T14:00:00Z,29.4412,-92.0613,27.21,11111222 
WAVCIS,ioos:station:WAVCIS:CSI03:1,2016-08-01T15:00:00Z,29.4412,-92.0613,28.97,11111222 
WAVCIS,ioos:station:WAVCIS:CSI03:1,2016-08-01T16:00:00Z,29.4412,-92.0613,29.83,11111222 
WAVCIS,ioos:station:WAVCIS:CSI03:1,2016-08-01T17:00:00Z,29.4412,-92.0613,30.35,11111222 
WAVCIS,ioos:station:WAVCIS:CSI03:1,2016-08-01T18:00:00Z,29.4412,-92.0613,30.51,11111222 
WAVCIS,ioos:station:WAVCIS:CSI03:1,2016-08-01T19:00:00Z,29.4412,-92.0613,31.42,11111222 
WAVCIS,ioos:station:WAVCIS:CSI03:1,2016-08-01T20:00:00Z,29.4412,-92.0613,31.78,11111222 
WAVCIS,ioos:station:WAVCIS:CSI03:1,2016-08-01T21:00:00Z,29.4412,-92.0613,30.87,11111222 
WAVCIS,ioos:station:WAVCIS:CSI03:1,2016-08-01T22:00:00Z,29.4412,-92.0613,31.22,11111222 
WAVCIS,ioos:station:WAVCIS:CSI03:1,2016-08-01T23:00:00Z,29.4412,-92.0613,31.4,11111222 
WAVCIS,ioos:station:WAVCIS:CSI03:1,2016-08-02T00:00:00Z,29.4412,-92.0613,31.73,11111222 
WAVCIS,ioos:station:WAVCIS:CSI03:1,2016-08-02T01:00:00Z,29.4412,-92.0613,31.17,11111222 
WAVCIS,ioos:station:WAVCIS:CSI03:1,2016-08-02T02:00:00Z,29.4412,-92.0613,31.35,11111222 
WAVCIS,ioos:station:WAVCIS:CSI03:1,2016-08-02T03:00:00Z,29.4412,-92.0613,31.05,11111222 
WAVCIS,ioos:station:WAVCIS:CSI03:1,2016-08-02T04:00:00Z,29.4412,-92.0613,31.18,11111222 
WAVCIS,ioos:station:WAVCIS:CSI03:1,2016-08-02T05:00:00Z,29.4412,-92.0613,31.13,11111222 
WAVCIS,ioos:station:WAVCIS:CSI03:1,2016-08-02T06:00:00Z,29.4412,-92.0613,30.73,11111222 
WAVCIS,ioos:station:WAVCIS:CSI03:1,2016-08-02T07:00:00Z,29.4412,-92.0613,30.25,11111222 
WAVCIS,ioos:station:WAVCIS:CSI03:1,2016-08-02T08:00:00Z,29.4412,-92.0613,30.69,11111222 
WAVCIS,ioos:station:WAVCIS:CSI03:1,2016-08-02T09:00:00Z,29.4412,-92.0613,30.66,11111222 
WAVCIS,ioos:station:WAVCIS:CSI03:1,2016-08-02T10:00:00Z,29.4412,-92.0613,30.41,11111222 
WAVCIS,ioos:station:WAVCIS:CSI03:1,2016-08-02T11:00:00Z,29.4412,-92.0613,30.28,11111222 
WAVCIS,ioos:station:WAVCIS:CSI03:1,2016-08-02T12:00:00Z,29.4412,-92.0613,30.2,11111222 
WAVCIS,ioos:station:WAVCIS:CSI03:1,2016-08-02T13:00:00Z,29.4412,-92.0613,30.82,11111222 
WAVCIS,ioos:station:WAVCIS:CSI03:1,2016-08-02T14:00:00Z,29.4412,-92.0613,30.65,11111222 
WAVCIS,ioos:station:WAVCIS:CSI03:1,2016-08-02T15:00:00Z,29.4412,-92.0613,29.58,11111222 
WAVCIS,ioos:station:WAVCIS:CSI03:1,2016-08-02T16:00:00Z,29.4412,-92.0613,29.95,11111222 
WAVCIS,ioos:station:WAVCIS:CSI03:1,2016-08-02T17:00:00Z,29.4412,-92.0613,30.61,11111222 
WAVCIS,ioos:station:WAVCIS:CSI03:1,2016-08-02T18:00:00Z,29.4412,-92.0613,30.61,11111222 
WAVCIS,ioos:station:WAVCIS:CSI03:1,2016-08-02T19:00:00Z,29.4412,-92.0613,30.78,11111222 
WAVCIS,ioos:station:WAVCIS:CSI03:1,2016-08-02T20:00:00Z,29.4412,-92.0613,32.18,11111222 
WAVCIS,ioos:station:WAVCIS:CSI03:1,2016-08-02T21:00:00Z,29.4412,-92.0613,32.56,11111222 
WAVCIS,ioos:station:WAVCIS:CSI03:1,2016-08-02T22:00:00Z,29.4412,-92.0613,32.66,11111222 
WAVCIS,ioos:station:WAVCIS:CSI03:1,2016-08-02T23:00:00Z,29.4412,-92.0613,32.86,11111222 
WAVCIS,ioos:station:WAVCIS:CSI03:1,2016-08-03T00:00:00Z,29.4412,-92.0613,32.43,11111222 
WAVCIS,ioos:station:WAVCIS:CSI03:1,2016-08-03T01:00:00Z,29.4412,-92.0613,31.47,11111222 
WAVCIS,ioos:station:WAVCIS:CSI03:1,2016-08-03T02:00:00Z,29.4412,-92.0613,30.85,11111222 
WAVCIS,ioos:station:WAVCIS:CSI03:1,2016-08-03T03:00:00Z,29.4412,-92.0613,30.83,11111222 
WAVCIS,ioos:station:WAVCIS:CSI03:1,2016-08-03T04:00:00Z,29.4412,-92.0613,31.0,11111222 
WAVCIS,ioos:station:WAVCIS:CSI03:1,2016-08-03T05:00:00Z,29.4412,-92.0613,31.05,11111222 
WAVCIS,ioos:station:WAVCIS:CSI03:1,2016-08-03T06:00:00Z,29.4412,-92.0613,31.16,11111222 
WAVCIS,ioos:station:WAVCIS:CSI03:1,2016-08-03T07:00:00Z,29.4412,-92.0613,30.7,11111222 
WAVCIS,ioos:station:WAVCIS:CSI03:1,2016-08-03T08:00:00Z,29.4412,-92.0613,30.56,11111222 
WAVCIS,ioos:station:WAVCIS:CSI03:1,2016-08-03T09:00:00Z,29.4412,-92.0613,30.46,11111222 
WAVCIS,ioos:station:WAVCIS:CSI03:1,2016-08-03T10:00:00Z,29.4412,-92.0613,30.27,11111222 
WAVCIS,ioos:station:WAVCIS:CSI03:1,2016-08-03T11:00:00Z,29.4412,-92.0613,30.4,11111222 
WAVCIS,ioos:station:WAVCIS:CSI03:1,2016-08-03T12:00:00Z,29.4412,-92.0613,30.2,11111222 
WAVCIS,ioos:station:WAVCIS:CSI03:1,2016-08-03T13:00:00Z,29.4412,-92.0613,29.46,11111222 
WAVCIS,ioos:station:WAVCIS:CSI03:1,2016-08-03T14:00:00Z,29.4412,-92.0613,29.12,11111222 
WAVCIS,ioos:station:WAVCIS:CSI03:1,2016-08-03T15:00:00Z,29.4412,-92.0613,29.25,11111222 
WAVCIS,ioos:station:WAVCIS:CSI03:1,2016-08-03T16:00:00Z,29.4412,-92.0613,29.27,11111222 
WAVCIS,ioos:station:WAVCIS:CSI03:1,2016-08-03T17:00:00Z,29.4412,-92.0613,28.56,11111222 
WAVCIS,ioos:station:WAVCIS:CSI03:1,2016-08-03T18:00:00Z,29.4412,-92.0613,29.1,11111222 
WAVCIS,ioos:station:WAVCIS:CSI03:1,2016-08-03T19:00:00Z,29.4412,-92.0613,28.67,11111222 
WAVCIS,ioos:station:WAVCIS:CSI03:1,2016-08-03T20:00:00Z,29.4412,-92.0613,29.17,11111222 
WAVCIS,ioos:station:WAVCIS:CSI03:1,2016-08-03T21:00:00Z,29.4412,-92.0613,29.4,11111222 
WAVCIS,ioos:station:WAVCIS:CSI03:1,2016-08-03T22:00:00Z,29.4412,-92.0613,30.84,11111222 
WAVCIS,ioos:station:WAVCIS:CSI03:1,2016-08-03T23:00:00Z,29.4412,-92.0613,30.96,11111222 
WAVCIS,ioos:station:WAVCIS:CSI03:1,2016-08-04T00:00:00Z,29.4412,-92.0613,30.64,11111222 
WAVCIS,ioos:station:WAVCIS:CSI03:1,2016-08-04T01:00:00Z,29.4412,-92.0613,30.58,11111222 
WAVCIS,ioos:station:WAVCIS:CSI03:1,2016-08-04T02:00:00Z,29.4412,-92.0613,30.41,11111222 
WAVCIS,ioos:station:WAVCIS:CSI03:1,2016-08-04T03:00:00Z,29.4412,-92.0613,31.15,11111222 
WAVCIS,ioos:station:WAVCIS:CSI03:1,2016-08-04T04:00:00Z,29.4412,-92.0613,30.73,11111222 
WAVCIS,ioos:station:WAVCIS:CSI03:1,2016-08-04T05:00:00Z,29.4412,-92.0613,30.99,11111222 
WAVCIS,ioos:station:WAVCIS:CSI03:1,2016-08-04T06:00:00Z,29.4412,-92.0613,31.0,11111222 
WAVCIS,ioos:station:WAVCIS:CSI03:1,2016-08-04T07:00:00Z,29.4412,-92.0613,30.29,11111222 
WAVCIS,ioos:station:WAVCIS:CSI03:1,2016-08-04T08:00:00Z,29.4412,-92.0613,30.21,11111222 
WAVCIS,ioos:station:WAVCIS:CSI03:1,2016-08-04T09:00:00Z,29.4412,-92.0613,30.01,11111222 
WAVCIS,ioos:station:WAVCIS:CSI03:1,2016-08-04T10:00:00Z,29.4412,-92.0613,30.0,11111222 
WAVCIS,ioos:station:WAVCIS:CSI03:1,2016-08-04T11:00:00Z,29.4412,-92.0613,29.95,11111222 
WAVCIS,ioos:station:WAVCIS:CSI03:1,2016-08-04T12:00:00Z,29.4412,-92.0613,30.17,11111222 
WAVCIS,ioos:station:WAVCIS:CSI03:1,2016-08-04T13:00:00Z,29.4412,-92.0613,31.07,11111222 
WAVCIS,ioos:station:WAVCIS:CSI03:1,2016-08-04T14:00:00Z,29.4412,-92.0613,33.32,11111222 
WAVCIS,ioos:station:WAVCIS:CSI03:1,2016-08-04T15:00:00Z,29.4412,-92.0613,33.22,11111222 
WAVCIS,ioos:station:WAVCIS:CSI03:1,2016-08-04T16:00:00Z,29.4412,-92.0613,32.74,11111222 
WAVCIS,ioos:station:WAVCIS:CSI03:1,2016-08-04T17:00:00Z,29.4412,-92.0613,32.0,11111222 
WAVCIS,ioos:station:WAVCIS:CSI03:1,2016-08-04T18:00:00Z,29.4412,-92.0613,31.63,11111222 
WAVCIS,ioos:station:WAVCIS:CSI03:1,2016-08-04T19:00:00Z,29.4412,-92.0613,32.18,11111222 
WAVCIS,ioos:station:WAVCIS:CSI03:1,2016-08-04T20:00:00Z,29.4412,-92.0613,31.9,11111222 
WAVCIS,ioos:station:WAVCIS:CSI03:1,2016-08-04T21:00:00Z,29.4412,-92.0613,32.21,11111222 
WAVCIS,ioos:station:WAVCIS:CSI03:1,2016-08-04T22:00:00Z,29.4412,-92.0613,32.44,11111222 
WAVCIS,ioos:station:WAVCIS:CSI03:1,2016-08-04T23:00:00Z,29.4412,-92.0613,32.84,11111222 
WAVCIS,ioos:station:WAVCIS:CSI03:1,2016-08-05T00:00:00Z,29.4412,-92.0613,32.65,11111222 
WAVCIS,ioos:station:WAVCIS:CSI03:1,2016-08-05T01:00:00Z,29.4412,-92.0613,31.42,11111222 
WAVCIS,ioos:station:WAVCIS:CSI03:1,2016-08-05T02:00:00Z,29.4412,-92.0613,31.13,11111222 
WAVCIS,ioos:station:WAVCIS:CSI03:1,2016-08-05T03:00:00Z,29.4412,-92.0613,31.0,11111222 
WAVCIS,ioos:station:WAVCIS:CSI03:1,2016-08-05T04:00:00Z,29.4412,-92.0613,31.07,11111222 
WAVCIS,ioos:station:WAVCIS:CSI03:1,2016-08-05T05:00:00Z,29.4412,-92.0613,30.91,11111222 
WAVCIS,ioos:station:WAVCIS:CSI03:1,2016-08-05T06:00:00Z,29.4412,-92.0613,31.06,11111222 
WAVCIS,ioos:station:WAVCIS:CSI03:1,2016-08-05T07:00:00Z,29.4412,-92.0613,30.81,11111222 
WAVCIS,ioos:station:WAVCIS:CSI03:1,2016-08-05T08:00:00Z,29.4412,-92.0613,30.85,11111222 
WAVCIS,ioos:station:WAVCIS:CSI03:1,2016-08-05T09:00:00Z,29.4412,-92.0613,31.08,11111222 
WAVCIS,ioos:station:WAVCIS:CSI03:1,2016-08-05T10:00:00Z,29.4412,-92.0613,31.07,11111222 
WAVCIS,ioos:station:WAVCIS:CSI03:1,2016-08-05T11:00:00Z,29.4412,-92.0613,30.83,11111222 
WAVCIS,ioos:station:WAVCIS:CSI03:1,2016-08-05T12:00:00Z,29.4412,-92.0613,30.44,11111222 
WAVCIS,ioos:station:WAVCIS:CSI03:1,2016-08-05T13:00:00Z,29.4412,-92.0613,30.78,11111222 
WAVCIS,ioos:station:WAVCIS:CSI03:1,2016-08-05T14:00:00Z,29.4412,-92.0613,31.0,11111222 
WAVCIS,ioos:station:WAVCIS:CSI03:1,2016-08-05T15:00:00Z,29.4412,-92.0613,31.12,11111222 
WAVCIS,ioos:station:WAVCIS:CSI03:1,2016-08-08T19:00:00Z,29.4412,-92.0613,31.8,11111222 
WAVCIS,ioos:station:WAVCIS:CSI03:1,2016-08-15T16:00:00Z,29.4412,-92.0613,27.6,11111222 
WAVCIS,ioos:station:WAVCIS:CSI03:1,2016-08-15T17:00:00Z,29.4412,-92.0613,27.78,11111222 
WAVCIS,ioos:station:WAVCIS:CSI03:1,2016-08-15T18:00:00Z,29.4412,-92.0613,27.84,11111222 
WAVCIS,ioos:station:WAVCIS:CSI03:1,2016-08-15T19:00:00Z,29.4412,-92.0613,27.71,11111222 
WAVCIS,ioos:station:WAVCIS:CSI03:1,2016-08-15T20:00:00Z,29.4412,-92.0613,27.93,11111222 
WAVCIS,ioos:station:WAVCIS:CSI03:1,2016-08-15T21:00:00Z,29.4412,-92.0613,28.1,11111222 
WAVCIS,ioos:station:WAVCIS:CSI03:1,2016-08-15T22:00:00Z,29.4412,-92.0613,28.35,11111222 
WAVCIS,ioos:station:WAVCIS:CSI03:1,2016-08-15T23:00:00Z,29.4412,-92.0613,28.33,11111222 
WAVCIS,ioos:station:WAVCIS:CSI03:1,2016-08-16T00:00:00Z,29.4412,-92.0613,28.0,11111222 
WAVCIS,ioos:station:WAVCIS:CSI03:1,2016-08-16T01:00:00Z,29.4412,-92.0613,27.65,11111222 
WAVCIS,ioos:station:WAVCIS:CSI03:1,2016-08-16T02:00:00Z,29.4412,-92.0613,27.71,11111222 
WAVCIS,ioos:station:WAVCIS:CSI03:1,2016-08-16T03:00:00Z,29.4412,-92.0613,27.69,11111222 
WAVCIS,ioos:station:WAVCIS:CSI03:1,2016-08-16T04:00:00Z,29.4412,-92.0613,27.73,11111222 
WAVCIS,ioos:station:WAVCIS:CSI03:1,2016-08-16T05:00:00Z,29.4412,-92.0613,27.74,11111222 
WAVCIS,ioos:station:WAVCIS:CSI03:1,2016-08-16T06:00:00Z,29.4412,-92.0613,27.77,11111222 
WAVCIS,ioos:station:WAVCIS:CSI03:1,2016-08-16T07:00:00Z,29.4412,-92.0613,27.46,11111222 
WAVCIS,ioos:station:WAVCIS:CSI03:1,2016-08-16T08:00:00Z,29.4412,-92.0613,27.63,11111222 
WAVCIS,ioos:station:WAVCIS:CSI03:1,2016-08-16T09:00:00Z,29.4412,-92.0613,27.4,11111222 
WAVCIS,ioos:station:WAVCIS:CSI03:1,2016-08-16T10:00:00Z,29.4412,-92.0613,27.38,11111222 
WAVCIS,ioos:station:WAVCIS:CSI03:1,2016-08-16T11:00:00Z,29.4412,-92.0613,27.36,11111222 
WAVCIS,ioos:station:WAVCIS:CSI03:1,2016-08-16T12:00:00Z,29.4412,-92.0613,27.32,11111222 
WAVCIS,ioos:station:WAVCIS:CSI03:1,2016-08-16T13:00:00Z,29.4412,-92.0613,27.59,11111222 
WAVCIS,ioos:station:WAVCIS:CSI03:1,2016-08-16T14:00:00Z,29.4412,-92.0613,27.8,11111222 
WAVCIS,ioos:station:WAVCIS:CSI03:1,2016-08-16T15:00:00Z,29.4412,-92.0613,28.02,11111222 
WAVCIS,ioos:station:WAVCIS:CSI03:1,2016-08-16T16:00:00Z,29.4412,-92.0613,28.3,11111222 
WAVCIS,ioos:station:WAVCIS:CSI03:1,2016-08-16T17:00:00Z,29.4412,-92.0613,28.75,11111222 
WAVCIS,ioos:station:WAVCIS:CSI03:1,2016-08-16T18:00:00Z,29.4412,-92.0613,28.79,11111222 
WAVCIS,ioos:station:WAVCIS:CSI03:1,2016-08-16T19:00:00Z,29.4412,-92.0613,27.02,11111222 
WAVCIS,ioos:station:WAVCIS:CSI03:1,2016-08-16T20:00:00Z,29.4412,-92.0613,26.54,11111222 
WAVCIS,ioos:station:WAVCIS:CSI03:1,2016-08-16T21:00:00Z,29.4412,-92.0613,30.3,11111222 
WAVCIS,ioos:station:WAVCIS:CSI03:1,2016-08-16T22:00:00Z,29.4412,-92.0613,29.73,11111222 
WAVCIS,ioos:station:WAVCIS:CSI03:1,2016-08-16T23:00:00Z,29.4412,-92.0613,28.34,11111222 
WAVCIS,ioos:station:WAVCIS:CSI03:1,2016-08-17T00:00:00Z,29.4412,-92.0613,28.39,11111222 
WAVCIS,ioos:station:WAVCIS:CSI03:1,2016-08-17T01:00:00Z,29.4412,-92.0613,28.14,11111222 
WAVCIS,ioos:station:WAVCIS:CSI03:1,2016-08-17T02:00:00Z,29.4412,-92.0613,26.81,11111222 
WAVCIS,ioos:station:WAVCIS:CSI03:1,2016-08-17T03:00:00Z,29.4412,-92.0613,26.07,11111222 
WAVCIS,ioos:station:WAVCIS:CSI03:1,2016-08-17T05:00:00Z,29.4412,-92.0613,23.62,11111222 
WAVCIS,ioos:station:WAVCIS:CSI03:1,2016-08-17T06:00:00Z,29.4412,-92.0613,24.97,11111222 
WAVCIS,ioos:station:WAVCIS:CSI03:1,2016-08-17T07:00:00Z,29.4412,-92.0613,25.06,11111222 
WAVCIS,ioos:station:WAVCIS:CSI03:1,2016-08-17T08:00:00Z,29.4412,-92.0613,25.71,11111222 
WAVCIS,ioos:station:WAVCIS:CSI03:1,2016-08-17T09:00:00Z,29.4412,-92.0613,26.19,11111222 
WAVCIS,ioos:station:WAVCIS:CSI03:1,2016-08-17T10:00:00Z,29.4412,-92.0613,26.36,11111222 
WAVCIS,ioos:station:WAVCIS:CSI03:1,2016-08-17T11:00:00Z,29.4412,-92.0613,26.33,11111222 
WAVCIS,ioos:station:WAVCIS:CSI03:1,2016-08-17T12:00:00Z,29.4412,-92.0613,26.63,11111222 
WAVCIS,ioos:station:WAVCIS:CSI03:1,2016-08-17T13:00:00Z,29.4412,-92.0613,26.85,11111222 
WAVCIS,ioos:station:WAVCIS:CSI03:1,2016-08-17T14:00:00Z,29.4412,-92.0613,27.38,11111222 
WAVCIS,ioos:station:WAVCIS:CSI03:1,2016-08-17T15:00:00Z,29.4412,-92.0613,28.13,11111222 
WAVCIS,ioos:station:WAVCIS:CSI03:1,2016-08-17T16:00:00Z,29.4412,-92.0613,28.13,11111222 
WAVCIS,ioos:station:WAVCIS:CSI03:1,2016-08-17T17:00:00Z,29.4412,-92.0613,28.58,11111222 
WAVCIS,ioos:station:WAVCIS:CSI03:1,2016-08-17T18:00:00Z,29.4412,-92.0613,28.92,11111222 
WAVCIS,ioos:station:WAVCIS:CSI03:1,2016-08-17T19:00:00Z,29.4412,-92.0613,28.87,11111222 
WAVCIS,ioos:station:WAVCIS:CSI03:1,2016-08-17T20:00:00Z,29.4412,-92.0613,28.83,11111222 
WAVCIS,ioos:station:WAVCIS:CSI03:1,2016-08-17T21:00:00Z,29.4412,-92.0613,28.83,11111222 
WAVCIS,ioos:station:WAVCIS:CSI03:1,2016-08-17T22:00:00Z,29.4412,-92.0613,28.79,11111222 
WAVCIS,ioos:station:WAVCIS:CSI03:1,2016-08-17T23:00:00Z,29.4412,-92.0613,28.71,11111222 
WAVCIS,ioos:station:WAVCIS:CSI03:1,2016-08-18T00:00:00Z,29.4412,-92.0613,28.81,11111222 
WAVCIS,ioos:station:WAVCIS:CSI03:1,2016-08-18T01:00:00Z,29.4412,-92.0613,28.82,11111222 
WAVCIS,ioos:station:WAVCIS:CSI03:1,2016-08-18T02:00:00Z,29.4412,-92.0613,28.7,11111222 
WAVCIS,ioos:station:WAVCIS:CSI03:1,2016-08-18T03:00:00Z,29.4412,-92.0613,28.65,11111222 
WAVCIS,ioos:station:WAVCIS:CSI03:1,2016-08-18T04:00:00Z,29.4412,-92.0613,28.66,11111222 
WAVCIS,ioos:station:WAVCIS:CSI03:1,2016-08-18T05:00:00Z,29.4412,-92.0613,28.75,11111222 
WAVCIS,ioos:station:WAVCIS:CSI03:1,2016-08-18T06:00:00Z,29.4412,-92.0613,27.81,11111222 
WAVCIS,ioos:station:WAVCIS:CSI03:1,2016-08-18T07:00:00Z,29.4412,-92.0613,27.53,11111222 
WAVCIS,ioos:station:WAVCIS:CSI03:1,2016-08-18T08:00:00Z,29.4412,-92.0613,27.87,11111222 
WAVCIS,ioos:station:WAVCIS:CSI03:1,2016-08-18T09:00:00Z,29.4412,-92.0613,28.35,11111222 
WAVCIS,ioos:station:WAVCIS:CSI03:1,2016-08-18T10:00:00Z,29.4412,-92.0613,28.32,11111222 
WAVCIS,ioos:station:WAVCIS:CSI03:1,2016-08-18T11:00:00Z,29.4412,-92.0613,28.15,11111222 
WAVCIS,ioos:station:WAVCIS:CSI03:1,2016-08-18T12:00:00Z,29.4412,-92.0613,28.31,11111222 
WAVCIS,ioos:station:WAVCIS:CSI03:1,2016-08-18T13:00:00Z,29.4412,-92.0613,28.73,11111222 
WAVCIS,ioos:station:WAVCIS:CSI03:1,2016-08-18T14:00:00Z,29.4412,-92.0613,28.84,11111222 
WAVCIS,ioos:station:WAVCIS:CSI03:1,2016-08-18T15:00:00Z,29.4412,-92.0613,28.91,11111222 
WAVCIS,ioos:station:WAVCIS:CSI03:1,2016-08-18T16:00:00Z,29.4412,-92.0613,28.92,11111222 
WAVCIS,ioos:station:WAVCIS:CSI03:1,2016-08-18T17:00:00Z,29.4412,-92.0613,28.91,11111222 
WAVCIS,ioos:station:WAVCIS:CSI03:1,2016-08-18T18:00:00Z,29.4412,-92.0613,28.89,11111222 
WAVCIS,ioos:station:WAVCIS:CSI03:1,2016-08-18T19:00:00Z,29.4412,-92.0613,28.35,11111222 
WAVCIS,ioos:station:WAVCIS:CSI03:1,2016-08-18T20:00:00Z,29.4412,-92.0613,28.55,11111222 
WAVCIS,ioos:station:WAVCIS:CSI03:1,2016-08-18T21:00:00Z,29.4412,-92.0613,28.54,11111222 
WAVCIS,ioos:station:WAVCIS:CSI03:1,2016-08-18T22:00:00Z,29.4412,-92.0613,29.46,11111222 
WAVCIS,ioos:station:WAVCIS:CSI03:1,2016-08-18T23:00:00Z,29.4412,-92.0613,28.76,11111222 
WAVCIS,ioos:station:WAVCIS:CSI03:1,2016-08-19T00:00:00Z,29.4412,-92.0613,26.86,11111222 
WAVCIS,ioos:station:WAVCIS:CSI03:1,2016-08-19T01:00:00Z,29.4412,-92.0613,29.24,11111222 
WAVCIS,ioos:station:WAVCIS:CSI03:1,2016-08-19T02:00:00Z,29.4412,-92.0613,29.49,11111222 
WAVCIS,ioos:station:WAVCIS:CSI03:1,2016-08-19T03:00:00Z,29.4412,-92.0613,29.31,11111222 
WAVCIS,ioos:station:WAVCIS:CSI03:1,2016-08-19T04:00:00Z,29.4412,-92.0613,28.73,11111222 
WAVCIS,ioos:station:WAVCIS:CSI03:1,2016-08-19T05:00:00Z,29.4412,-92.0613,28.68,11111222 
WAVCIS,ioos:station:WAVCIS:CSI03:1,2016-08-19T06:00:00Z,29.4412,-92.0613,30.27,11111222 
WAVCIS,ioos:station:WAVCIS:CSI03:1,2016-08-19T07:00:00Z,29.4412,-92.0613,29.97,11111222 
WAVCIS,ioos:station:WAVCIS:CSI03:1,2016-08-19T08:00:00Z,29.4412,-92.0613,29.12,11111222 
WAVCIS,ioos:station:WAVCIS:CSI03:1,2016-08-19T09:00:00Z,29.4412,-92.0613,29.06,11111222 
WAVCIS,ioos:station:WAVCIS:CSI03:1,2016-08-19T10:00:00Z,29.4412,-92.0613,29.25,11111222 
WAVCIS,ioos:station:WAVCIS:CSI03:1,2016-08-19T11:00:00Z,29.4412,-92.0613,29.26,11111222 
WAVCIS,ioos:station:WAVCIS:CSI03:1,2016-08-19T12:00:00Z,29.4412,-92.0613,29.26,11111222 
WAVCIS,ioos:station:WAVCIS:CSI03:1,2016-08-19T13:00:00Z,29.4412,-92.0613,29.57,11111222 
WAVCIS,ioos:station:WAVCIS:CSI03:1,2016-08-19T14:00:00Z,29.4412,-92.0613,30.08,11111222 
WAVCIS,ioos:station:WAVCIS:CSI03:1,2016-08-19T15:00:00Z,29.4412,-92.0613,31.25,11111222 
WAVCIS,ioos:station:WAVCIS:CSI03:1,2016-08-19T16:00:00Z,29.4412,-92.0613,29.5,11111222 
WAVCIS,ioos:station:WAVCIS:CSI03:1,2016-08-19T17:00:00Z,29.4412,-92.0613,31.14,11111222 
WAVCIS,ioos:station:WAVCIS:CSI03:1,2016-08-19T18:00:00Z,29.4412,-92.0613,31.38,11111222 
WAVCIS,ioos:station:WAVCIS:CSI03:1,2016-08-19T19:00:00Z,29.4412,-92.0613,30.57,11111222 
WAVCIS,ioos:station:WAVCIS:CSI03:1,2016-08-19T20:00:00Z,29.4412,-92.0613,31.11,11111222 
WAVCIS,ioos:station:WAVCIS:CSI03:1,2016-08-19T21:00:00Z,29.4412,-92.0613,31.69,11111222 
WAVCIS,ioos:station:WAVCIS:CSI03:1,2016-08-19T22:00:00Z,29.4412,-92.0613,31.79,11111222 
WAVCIS,ioos:station:WAVCIS:CSI03:1,2016-08-19T23:00:00Z,29.4412,-92.0613,30.79,11111222 
WAVCIS,ioos:station:WAVCIS:CSI03:1,2016-08-20T00:00:00Z,29.4412,-92.0613,30.54,11111222 
WAVCIS,ioos:station:WAVCIS:CSI03:1,2016-08-20T01:00:00Z,29.4412,-92.0613,29.94,11111222 
WAVCIS,ioos:station:WAVCIS:CSI03:1,2016-08-20T02:00:00Z,29.4412,-92.0613,29.9,11111222 
WAVCIS,ioos:station:WAVCIS:CSI03:1,2016-08-20T03:00:00Z,29.4412,-92.0613,29.83,11111222 
WAVCIS,ioos:station:WAVCIS:CSI03:1,2016-08-20T04:00:00Z,29.4412,-92.0613,29.91,11111222 
WAVCIS,ioos:station:WAVCIS:CSI03:1,2016-08-20T05:00:00Z,29.4412,-92.0613,30.38,11111222 
WAVCIS,ioos:station:WAVCIS:CSI03:1,2016-08-20T06:00:00Z,29.4412,-92.0613,29.87,11111222 
WAVCIS,ioos:station:WAVCIS:CSI03:1,2016-08-20T07:00:00Z,29.4412,-92.0613,29.84,11111222 
WAVCIS,ioos:station:WAVCIS:CSI03:1,2016-08-20T08:00:00Z,29.4412,-92.0613,29.78,11111222 
WAVCIS,ioos:station:WAVCIS:CSI03:1,2016-08-20T09:00:00Z,29.4412,-92.0613,29.48,11111222 
WAVCIS,ioos:station:WAVCIS:CSI03:1,2016-08-20T10:00:00Z,29.4412,-92.0613,29.63,11111222 
WAVCIS,ioos:station:WAVCIS:CSI03:1,2016-08-20T11:00:00Z,29.4412,-92.0613,29.36,11111222 
WAVCIS,ioos:station:WAVCIS:CSI03:1,2016-08-20T12:00:00Z,29.4412,-92.0613,29.8,11111222 
WAVCIS,ioos:station:WAVCIS:CSI03:1,2016-08-20T13:00:00Z,29.4412,-92.0613,30.34,11111222 
WAVCIS,ioos:station:WAVCIS:CSI03:1,2016-08-20T14:00:00Z,29.4412,-92.0613,31.45,11111222 
WAVCIS,ioos:station:WAVCIS:CSI03:1,2016-08-20T15:00:00Z,29.4412,-92.0613,31.62,11111222 
WAVCIS,ioos:station:WAVCIS:CSI03:1,2016-08-20T16:00:00Z,29.4412,-92.0613,30.71,11111222 
WAVCIS,ioos:station:WAVCIS:CSI03:1,2016-08-20T17:00:00Z,29.4412,-92.0613,30.94,11111222 
WAVCIS,ioos:station:WAVCIS:CSI03:1,2016-08-20T18:00:00Z,29.4412,-92.0613,31.14,11111222 
WAVCIS,ioos:station:WAVCIS:CSI03:1,2016-08-20T19:00:00Z,29.4412,-92.0613,29.97,11111222 
WAVCIS,ioos:station:WAVCIS:CSI03:1,2016-08-20T20:00:00Z,29.4412,-92.0613,31.03,11111222 
WAVCIS,ioos:station:WAVCIS:CSI03:1,2016-08-20T21:00:00Z,29.4412,-92.0613,31.88,11111222 
WAVCIS,ioos:station:WAVCIS:CSI03:1,2016-08-20T22:00:00Z,29.4412,-92.0613,31.44,11111222 
WAVCIS,ioos:station:WAVCIS:CSI03:1,2016-08-20T23:00:00Z,29.4412,-92.0613,31.33,11111222 
WAVCIS,ioos:station:WAVCIS:CSI03:1,2016-08-21T00:00:00Z,29.4412,-92.0613,30.49,11111222 
WAVCIS,ioos:station:WAVCIS:CSI03:1,2016-08-21T01:00:00Z,29.4412,-92.0613,30.05,11111222 
WAVCIS,ioos:station:WAVCIS:CSI03:1,2016-08-21T02:00:00Z,29.4412,-92.0613,30.1,11111222 
WAVCIS,ioos:station:WAVCIS:CSI03:1,2016-08-21T03:00:00Z,29.4412,-92.0613,30.0,11111222 
WAVCIS,ioos:station:WAVCIS:CSI03:1,2016-08-21T04:00:00Z,29.4412,-92.0613,30.03,11111222 
WAVCIS,ioos:station:WAVCIS:CSI03:1,2016-08-21T05:00:00Z,29.4412,-92.0613,29.95,11111222 
WAVCIS,ioos:station:WAVCIS:CSI03:1,2016-08-21T06:00:00Z,29.4412,-92.0613,29.88,11111222 
WAVCIS,ioos:station:WAVCIS:CSI03:1,2016-08-21T07:00:00Z,29.4412,-92.0613,29.82,11111222 
WAVCIS,ioos:station:WAVCIS:CSI03:1,2016-08-21T08:00:00Z,29.4412,-92.0613,29.72,11111222 
WAVCIS,ioos:station:WAVCIS:CSI03:1,2016-08-21T09:00:00Z,29.4412,-92.0613,29.7,11111222 
WAVCIS,ioos:station:WAVCIS:CSI03:1,2016-08-21T10:00:00Z,29.4412,-92.0613,29.63,11111222 
WAVCIS,ioos:station:WAVCIS:CSI03:1,2016-08-21T11:00:00Z,29.4412,-92.0613,29.5,11111222 
WAVCIS,ioos:station:WAVCIS:CSI03:1,2016-08-21T12:00:00Z,29.4412,-92.0613,29.71,11111222 
WAVCIS,ioos:station:WAVCIS:CSI03:1,2016-08-21T13:00:00Z,29.4412,-92.0613,30.71,11111222 
WAVCIS,ioos:station:WAVCIS:CSI03:1,2016-08-21T14:00:00Z,29.4412,-92.0613,31.36,11111222 
WAVCIS,ioos:station:WAVCIS:CSI03:1,2016-08-21T15:00:00Z,29.4412,-92.0613,30.17,11111222 
WAVCIS,ioos:station:WAVCIS:CSI03:1,2016-08-21T16:00:00Z,29.4412,-92.0613,30.96,11111222 
WAVCIS,ioos:station:WAVCIS:CSI03:1,2016-08-21T17:00:00Z,29.4412,-92.0613,31.02,11111222 
WAVCIS,ioos:station:WAVCIS:CSI03:1,2016-08-21T18:00:00Z,29.4412,-92.0613,31.75,11111222 
WAVCIS,ioos:station:WAVCIS:CSI03:1,2016-08-21T19:00:00Z,29.4412,-92.0613,31.03,11111222 
WAVCIS,ioos:station:WAVCIS:CSI03:1,2016-08-21T20:00:00Z,29.4412,-92.0613,31.71,11111222 
WAVCIS,ioos:station:WAVCIS:CSI03:1,2016-08-21T21:00:00Z,29.4412,-92.0613,31.91,11111222 
WAVCIS,ioos:station:WAVCIS:CSI03:1,2016-08-21T22:00:00Z,29.4412,-92.0613,31.52,11111222 
WAVCIS,ioos:station:WAVCIS:CSI03:1,2016-08-21T23:00:00Z,29.4412,-92.0613,30.31,11111222 
WAVCIS,ioos:station:WAVCIS:CSI03:1,2016-08-22T00:00:00Z,29.4412,-92.0613,28.03,11111222 
WAVCIS,ioos:station:WAVCIS:CSI03:1,2016-08-22T01:00:00Z,29.4412,-92.0613,28.77,11111222 
WAVCIS,ioos:station:WAVCIS:CSI03:1,2016-08-22T02:00:00Z,29.4412,-92.0613,28.26,11111222 
WAVCIS,ioos:station:WAVCIS:CSI03:1,2016-08-22T03:00:00Z,29.4412,-92.0613,28.74,11111222 
WAVCIS,ioos:station:WAVCIS:CSI03:1,2016-08-22T04:00:00Z,29.4412,-92.0613,28.41,11111222 